Date,TemperatureHighF,TemperatureAvgF,TemperatureLowF,DewpointHighF,DewpointAvgF,DewpointLowF,HumidityHigh,HumidityAvg,HumidityLow,PressureMaxIn,PressureMinIn,WindSpeedMaxMPH,WindSpeedAvgMPH,GustSpeedMaxMPH,PrecipitationSumIn
2013-1-1,47.7,42.2,37.5,36.9,30.5,23.7,74,63,49,30.00,29.88,8,2,12,0.00
2013-1-2,41.2,35.6,31.0,32.0,28.6,19.6,82,76,62,30.20,29.96,4,1,6,0.00
2013-1-3,38.8,32.8,29.5,23.8,19.7,15.9,70,58,48,30.22,30.12,5,2,7,0.00
2013-1-4,45.7,35.1,0.0,22.6,20.2,0.0,67,55,38,30.21,30.11,7,3,11,0.00
2013-1-5,49.3,38.4,0.0,30.6,21.6,0.0,75,51,30,30.35,30.15,6,3,8,0.02
2013-1-6,50.5,42.4,0.0,31.3,29.2,0.0,78,60,45,30.15,30.02,7,3,11,0.03
2013-1-7,47.0,39.9,0.0,29.2,27.3,0.0,75,61,46,30.42,30.14,6,2,8,0.00
2013-1-8,50.0,38.3,28.8,35.0,30.3,24.6,86,74,54,30.41,30.32,8,3,10,0.00
2013-1-9,58.2,49.2,35.6,47.9,40.3,27.9,92,73,39,30.40,30.26,7,3,11,0.00
2013-1-10,58.9,49.6,0.0,32.6,28.5,0.0,56,44,33,30.56,30.38,5,2,7,0.00
2013-1-11,44.4,41.1,0.0,40.4,35.6,0.0,97,82,54,30.46,30.08,5,2,7,0.05
2013-1-12,54.2,44.9,38.5,49.4,43.1,37.7,100,93,79,30.16,30.07,4,1,6,0.01
2013-1-13,63.6,55.1,45.7,60.1,53.2,44.7,100,93,85,30.11,29.99,6,3,14,0.01
2013-1-14,60.5,52.3,38.6,59.7,50.3,37.3,97,93,84,30.27,29.98,9,4,26,0.33
2013-1-15,38.9,36.5,35.2,37.6,35.6,34.4,97,96,95,30.31,30.08,15,3,108,1.30
2013-1-16,41.8,37.7,34.1,41.3,36.9,33.4,98,97,96,30.12,29.86,10,3,69,0.27
2013-1-17,43.2,37.0,31.9,42.5,36.2,31.0,98,97,95,30.12,29.96,13,2,84,0.59
2013-1-18,42.3,33.3,0.0,32.3,24.5,0.0,97,71,35,30.46,30.11,7,3,21,0.14
2013-1-19,50.6,36.0,26.8,34.8,27.9,23.1,87,73,49,30.39,29.97,8,4,12,0.01
2013-1-20,58.5,45.2,34.7,33.9,24.0,10.5,77,46,26,30.05,29.87,10,5,16,0.00
2013-1-21,52.7,38.4,27.8,24.0,13.7,5.5,46,36,28,30.06,29.77,12,4,19,0.00
2013-1-22,28.4,21.7,15.9,8.9,-0.4,-4.6,48,38,25,30.24,29.93,9,4,13,0.00
2013-1-23,30.5,20.8,0.0,16.9,3.0,-1.2,88,47,26,30.29,30.03,7,3,11,0.00
2013-1-24,26.4,19.9,0.0,16.1,7.4,0.0,91,60,35,30.49,30.01,10,4,17,0.03
2013-1-25,22.0,18.5,0.0,17.7,10.7,0.0,90,72,51,30.46,30.02,7,2,13,0.01
2013-1-26,35.6,27.4,18.5,25.2,20.6,16.1,100,76,61,30.41,30.02,6,2,7,0.01
2013-1-27,37.1,29.5,0.0,23.9,21.2,0.0,88,71,57,30.56,30.40,6,2,8,0.01
2013-1-28,46.8,37.6,29.2,41.3,34.3,23.2,97,88,77,30.41,30.08,8,3,10,0.22
2013-1-29,73.1,56.5,0.0,56.3,48.5,0.0,94,76,55,30.13,29.96,8,4,13,0.01
2013-1-30,68.0,59.3,0.0,62.2,56.4,0.0,98,90,80,29.96,29.26,12,6,21,1.90
2013-1-31,55.6,39.4,0.0,54.1,26.7,0.0,95,60,43,29.90,29.27,14,7,23,0.15
2013-2-1,30.9,25.3,17.2,26.9,10.0,2.7,90,53,33,30.35,29.76,12,4,19,0.00
2013-2-2,32.5,22.8,0.0,24.7,13.2,0.0,93,67,44,30.35,29.94,6,2,9,0.00
2013-2-3,39.7,30.2,0.0,28.5,21.8,0.0,92,72,50,29.95,29.79,8,3,15,0.01
2013-2-4,35.4,29.7,0.0,21.4,16.4,0.0,66,57,47,30.08,29.87,6,2,9,0.01
2013-2-5,55.3,41.1,31.1,35.0,29.0,21.2,72,63,44,29.92,29.81,8,4,12,0.00
2013-2-6,52.9,41.1,0.0,32.6,28.4,0.0,81,62,37,30.36,29.91,7,2,11,0.00
2013-2-7,38.0,34.4,0.0,29.7,25.3,0.0,91,69,59,30.39,30.11,5,1,9,0.00
2013-2-8,50.2,37.3,0.0,40.4,30.5,0.0,96,78,57,30.11,29.75,12,4,24,0.24
2013-2-9,46.8,37.1,0.0,22.6,14.7,0.0,62,41,25,30.36,29.94,11,4,21,0.01
2013-2-10,44.1,36.0,0.0,29.1,18.8,0.0,76,50,36,30.45,30.18,6,2,9,0.01
2013-2-11,54.6,45.2,0.0,49.8,37.9,0.0,97,80,28,30.19,29.77,11,4,19,0.05
2013-2-12,60.6,49.6,41.4,29.1,24.9,17.1,52,39,26,29.98,29.83,16,4,28,0.01
2013-2-13,47.2,38.6,33.5,34.6,30.0,23.2,95,73,39,29.92,29.63,6,2,11,0.03
2013-2-14,51.7,40.4,0.0,33.0,27.7,0.0,95,62,35,30.01,29.80,6,2,8,0.03
2013-2-15,61.2,45.3,33.7,38.3,31.7,26.6,84,61,36,30.03,29.87,8,3,13,0.03
2013-2-16,39.7,34.0,26.7,35.2,26.7,14.1,95,76,55,29.98,29.82,11,2,15,0.04
2013-2-17,29.4,24.4,19.9,15.8,7.3,2.5,70,48,33,30.22,29.85,12,5,18,0.01
2013-2-18,46.0,31.6,18.2,24.0,13.3,5.0,62,48,25,30.34,30.11,8,3,10,0.00
2013-2-19,44.6,37.1,32.8,41.0,28.3,17.9,94,72,46,30.12,29.74,11,5,18,0.17
2013-2-20,44.8,34.2,27.2,19.3,15.1,11.8,55,46,31,30.12,29.86,11,4,18,0.02
2013-2-21,44.0,32.2,24.1,18.6,15.4,12.0,61,50,34,30.30,30.10,7,2,12,0.00
2013-2-22,36.2,32.3,29.7,28.3,23.1,16.3,85,69,55,30.33,30.13,4,1,7,0.01
2013-2-23,51.5,38.5,31.4,41.3,34.3,27.6,95,85,66,30.16,29.80,3,1,5,0.01
2013-2-24,57.0,42.2,0.0,41.7,29.9,0.0,97,66,28,30.10,29.79,10,3,14,0.01
2013-2-25,43.0,34.4,27.3,21.0,18.7,16.0,65,53,38,30.21,30.09,8,2,10,0.01
2013-2-26,40.7,34.6,0.0,39.9,29.9,0.0,97,83,58,30.18,29.57,8,3,15,0.94
2013-2-27,54.4,44.2,37.0,43.9,35.7,31.5,97,74,48,29.70,29.55,8,3,14,0.07
2013-2-28,45.4,39.8,35.9,32.6,27.9,24.8,73,63,46,29.76,29.63,8,4,15,0.00
2013-3-1,40.9,37.0,0.0,28.7,25.5,0.0,69,63,54,29.89,29.75,6,2,10,0.00
2013-3-2,36.7,32.5,30.3,25.2,21.5,18.3,70,63,56,29.88,29.80,6,2,9,0.00
2013-3-3,43.7,32.2,26.1,21.4,17.2,12.9,67,54,37,29.93,29.79,9,4,14,0.00
2013-3-4,49.6,1.8,-147.8,17.5,-10.3,-99.9,62,39,21,30.03,29.92,8,2,13,0.00
2013-3-5,48.2,39.0,0.0,33.4,22.7,0.0,95,54,36,30.05,29.67,5,1,8,0.09
2013-3-6,31.5,31.0,30.8,30.5,29.9,29.6,96,96,95,29.69,29.57,0,0,0,0.09
2013-3-9,58.5,49.0,37.9,28.3,23.8,19.3,61,38,26,30.33,30.24,6,1,10,0.00
2013-3-10,64.0,50.9,38.9,33.8,26.2,20.6,53,39,28,30.30,30.18,8,2,11,0.00
2013-3-11,58.8,50.0,40.0,50.5,38.1,25.0,84,64,38,30.21,29.90,8,3,13,0.02
2013-3-12,64.0,54.5,0.0,57.3,46.1,0.0,98,75,46,29.95,29.70,9,4,14,1.45
2013-3-13,49.9,40.6,31.3,29.3,24.2,15.9,69,53,35,30.09,29.90,11,4,19,0.01
2013-3-14,49.5,37.2,27.3,19.5,16.1,13.2,60,43,25,30.15,30.03,10,5,20,0.00
2013-3-15,59.4,45.7,33.4,35.3,24.6,14.8,55,44,34,30.11,29.80,8,3,14,0.00
2013-3-16,67.9,52.6,42.4,54.1,43.0,33.2,91,71,52,29.87,29.60,9,3,14,0.27
2013-3-17,42.3,36.3,31.5,37.8,33.9,30.2,95,91,84,30.24,29.87,5,2,10,0.08
2013-3-18,32.0,31.3,30.6,31.0,30.3,29.4,96,96,95,30.26,29.88,4,1,6,0.29
2013-3-19,62.1,43.3,30.9,43.5,26.8,8.8,98,62,19,29.96,29.72,12,4,23,0.22
2013-3-20,54.2,43.2,0.0,20.1,13.2,0.0,40,29,21,30.01,29.75,11,4,17,0.01
2013-3-21,39.6,32.7,26.0,27.7,14.8,8.0,71,49,33,29.92,29.75,11,5,18,0.00
2013-3-22,50.8,35.7,23.9,21.3,15.0,9.2,60,44,27,29.98,29.87,9,3,15,0.00
2013-3-23,56.7,43.2,32.7,24.7,19.2,13.7,57,39,26,30.04,29.88,6,2,11,0.00
2013-3-24,43.7,34.6,30.5,29.6,24.7,19.2,95,69,39,29.98,29.63,7,2,11,0.00
2013-3-25,39.0,33.9,30.3,34.0,30.8,25.8,96,89,73,29.70,29.51,6,1,9,0.48
2013-3-26,43.9,38.2,32.9,30.7,27.2,24.6,77,65,48,30.03,29.70,8,3,12,0.12
2013-3-27,49.0,39.6,32.5,28.3,25.4,22.4,76,58,38,30.15,30.03,11,5,21,0.01
2013-3-28,49.6,41.0,34.2,28.1,25.0,22.9,65,53,39,30.24,30.11,11,5,19,0.00
2013-3-29,57.3,46.7,37.8,31.4,26.5,23.0,62,46,29,30.27,30.13,7,2,11,0.00
2013-3-30,62.1,50.7,40.2,31.5,27.8,23.7,58,42,28,30.23,30.07,8,2,11,0.00
2013-3-31,53.0,46.7,42.0,49.4,39.5,28.0,94,77,44,30.08,29.75,7,2,8,0.04
2013-4-1,64.0,52.9,40.7,47.6,37.4,21.7,83,57,36,29.99,29.78,12,5,21,0.01
2013-4-2,53.2,42.6,33.4,23.2,16.2,9.6,55,36,18,30.16,29.99,10,4,18,0.00
2013-4-3,55.9,43.0,33.2,21.3,14.4,10.2,48,32,18,30.35,30.16,10,4,17,0.00
2013-4-4,47.1,36.7,28.9,33.0,19.8,11.8,94,54,27,30.40,30.03,6,2,8,0.24
2013-4-5,65.1,47.9,34.0,42.9,33.5,28.5,97,65,28,30.03,29.85,8,2,13,0.49
2013-4-6,58.2,49.3,38.5,29.8,22.7,13.1,52,36,21,30.30,30.03,11,3,13,0.01
2013-4-7,72.2,54.6,37.0,44.5,36.9,26.0,69,53,35,30.25,30.01,9,4,16,0.00
2013-4-8,81.4,66.2,50.9,51.1,46.1,41.7,71,50,29,30.10,29.97,10,4,16,0.00
2013-4-9,86.4,72.8,59.7,57.0,52.8,50.0,72,51,33,30.12,29.99,7,4,12,0.00
2013-4-10,91.6,77.6,64.9,58.6,55.1,52.1,67,47,31,30.03,29.85,8,4,12,0.00
2013-4-11,86.6,73.9,63.8,61.3,57.0,54.0,71,57,38,29.90,29.75,9,4,15,0.00
2013-4-12,81.7,68.9,60.0,65.7,56.3,38.7,97,68,37,29.76,29.58,10,4,17,0.90
2013-4-13,73.1,60.8,49.5,42.0,35.8,28.4,60,41,24,29.96,29.74,9,3,14,0.01
2013-4-14,75.7,63.5,52.4,43.8,36.4,27.8,55,37,28,30.10,29.96,6,3,9,0.00
2013-4-15,59.8,55.0,0.0,54.5,50.5,0.0,96,85,55,30.27,30.08,5,1,8,0.38
2013-4-16,72.1,60.6,52.7,61.1,56.2,51.6,97,86,66,30.31,30.16,5,2,8,0.10
2013-4-17,83.4,69.6,59.7,63.6,59.2,56.8,91,72,44,30.22,30.11,7,2,12,0.02
2013-4-18,78.5,65.8,58.7,64.9,58.8,56.1,96,80,52,30.20,30.00,7,2,12,0.12
2013-4-19,72.6,64.8,54.4,66.0,60.6,44.1,96,87,69,30.00,29.64,8,4,15,0.63
2013-4-20,62.2,52.7,42.9,44.7,31.9,25.5,72,47,28,30.30,29.75,7,3,16,0.09
2013-4-21,55.0,46.5,37.9,33.6,29.0,25.9,66,51,39,30.55,30.30,7,2,13,0.00
2013-4-22,57.8,46.7,35.0,39.3,33.0,26.3,80,60,43,30.53,30.33,8,2,14,0.00
2013-4-23,65.4,53.3,44.6,47.9,42.0,36.8,80,66,49,30.36,30.10,6,2,10,0.00
2013-4-24,78.2,61.5,45.9,57.9,50.8,43.6,93,71,43,30.12,29.84,10,3,16,0.05
2013-4-25,67.8,55.8,43.4,53.8,36.2,27.2,85,50,26,30.29,29.98,6,2,12,0.05
2013-4-26,68.7,56.6,45.5,41.2,34.7,26.1,63,44,32,30.44,30.29,5,1,9,0.00
2013-4-27,73.6,59.4,46.8,48.4,42.7,37.5,76,56,33,30.39,30.25,4,1,6,0.00
2013-4-28,56.8,53.3,50.1,53.7,47.3,41.9,93,80,66,30.27,30.11,3,0,5,0.06
2013-4-29,64.1,55.5,50.8,57.5,53.1,48.2,97,92,77,30.15,29.99,4,1,7,0.41
2013-4-30,63.3,56.9,53.0,56.8,53.6,51.6,96,89,74,30.27,30.06,6,2,13,0.03
2013-5-1,70.9,59.6,51.4,53.1,46.5,35.4,96,66,31,30.39,30.25,7,2,13,0.05
2013-5-2,69.7,57.4,46.4,49.7,45.2,41.8,90,65,44,30.40,30.30,6,2,11,0.01
2013-5-3,67.2,55.1,46.1,51.9,46.0,40.5,93,73,44,30.36,30.23,6,1,12,0.00
2013-5-4,65.6,52.4,42.3,51.3,44.0,38.7,88,74,57,30.30,30.14,7,2,11,0.00
2013-5-5,63.3,52.0,40.4,47.4,41.8,34.8,86,69,52,30.21,30.09,9,2,13,0.00
2013-5-6,58.2,52.7,48.7,57.6,50.8,46.4,98,93,75,30.13,29.95,8,3,15,0.45
2013-5-7,65.9,57.4,52.8,61.6,56.2,51.9,98,96,85,29.97,29.85,9,2,14,1.36
2013-5-8,62.8,55.9,52.2,58.5,54.1,51.4,98,94,83,30.01,29.93,4,0,7,0.66
2013-5-9,77.4,62.6,49.2,63.0,54.4,47.9,97,77,43,30.04,29.93,3,1,6,0.01
2013-5-10,83.8,71.3,61.7,64.6,57.4,50.4,92,63,42,30.04,29.89,7,2,12,0.04
2013-5-11,78.9,67.4,61.0,66.2,60.5,56.0,94,80,52,29.90,29.74,5,2,10,0.04
2013-5-12,67.0,59.8,48.6,56.2,41.2,30.2,75,52,29,30.05,29.78,7,2,14,0.00
2013-5-13,60.8,51.0,43.7,36.2,32.2,28.5,64,49,32,30.17,30.04,5,1,11,0.00
2013-5-14,70.4,54.9,38.9,44.1,37.1,30.5,78,53,32,30.21,30.01,6,1,13,0.00
2013-5-15,87.0,68.7,50.8,65.9,54.2,42.1,79,61,46,30.03,29.76,6,2,14,0.00
2013-5-16,86.5,73.2,64.0,66.9,58.7,51.3,94,63,43,29.98,29.83,11,2,20,0.45
2013-5-17,82.6,71.8,63.3,64.7,59.7,54.1,88,67,38,30.14,29.96,4,1,5,0.02
2013-5-18,64.8,61.2,0.0,61.3,59.6,0.0,97,94,85,30.22,30.13,4,1,6,0.37
2013-5-19,65.6,61.7,59.2,64.2,60.9,58.6,98,97,95,30.20,30.08,4,0,7,0.22
2013-5-20,81.1,69.7,63.1,71.3,66.2,62.5,98,89,66,30.12,30.00,4,1,5,0.17
2013-5-21,86.0,73.8,64.7,73.2,68.3,63.9,98,84,61,30.02,29.91,4,1,7,0.01
2013-5-22,86.2,75.3,67.3,73.8,68.5,62.2,97,81,59,29.97,29.87,6,2,10,0.00
2013-5-23,81.1,69.0,61.3,69.9,65.1,59.8,96,88,67,29.94,29.78,5,1,10,0.62
2013-5-24,63.0,58.6,48.2,60.0,48.0,33.1,96,70,44,30.17,29.79,8,3,16,0.24
2013-5-25,68.2,53.9,40.0,43.2,35.1,29.9,77,52,24,30.25,30.11,6,2,15,0.00
2013-5-26,75.1,61.3,48.7,45.9,38.5,32.8,69,45,24,30.25,30.14,4,1,8,0.00
2013-5-27,69.0,60.1,50.8,53.4,44.8,35.0,76,57,43,30.29,30.18,2,0,4,0.00
2013-5-28,84.8,68.8,54.4,68.7,59.9,49.9,89,74,52,30.21,30.08,7,2,11,0.00
2013-5-29,88.5,75.6,63.3,72.1,65.6,61.2,94,73,50,30.17,30.11,5,2,10,0.00
2013-5-30,89.1,77.0,66.2,72.1,64.8,61.0,87,68,43,30.22,30.15,4,2,6,0.00
2013-5-31,88.5,76.8,65.2,71.6,64.6,59.6,87,68,47,30.19,30.08,5,2,10,0.00
2013-6-1,90.1,77.5,65.7,71.8,66.4,62.2,89,70,50,30.09,29.97,6,2,11,0.00
2013-6-2,78.5,71.9,67.4,71.9,66.8,62.7,96,84,73,29.97,29.88,5,2,10,0.02
2013-6-3,82.0,72.3,66.2,70.8,65.8,61.7,98,82,55,29.99,29.85,5,1,8,0.47
2013-6-4,77.1,68.0,59.1,62.4,53.2,43.7,89,62,33,30.15,29.99,5,1,9,0.01
2013-6-5,79.3,69.2,60.9,64.2,57.2,49.3,80,66,55,30.18,30.06,3,0,5,0.00
2013-6-6,66.2,62.2,59.4,63.5,58.7,53.2,98,89,69,30.08,29.85,4,0,7,2.26
2013-6-7,68.6,64.8,62.5,67.7,64.0,61.8,98,97,93,29.85,29.63,4,0,8,1.74
2013-6-8,81.7,70.6,63.6,67.0,62.5,58.3,96,77,51,30.10,29.78,4,1,6,0.01
2013-6-9,79.7,70.6,63.3,72.5,66.0,60.9,96,86,70,30.20,30.09,4,1,9,1.34
2013-6-10,79.9,70.6,66.3,74.7,68.9,65.4,98,95,79,30.12,29.83,6,2,12,1.82
2013-6-11,82.2,72.4,63.7,70.1,64.9,60.6,98,79,56,29.92,29.84,5,2,11,0.03
2013-6-12,89.9,77.9,65.1,74.9,68.1,60.4,90,73,55,29.93,29.83,6,1,12,0.01
2013-6-13,87.8,74.2,64.7,74.5,67.4,56.7,94,80,59,29.84,29.57,7,2,17,0.34
2013-6-14,77.8,68.8,62.6,59.0,55.6,51.8,78,64,45,30.02,29.69,7,2,14,0.01
2013-6-15,82.8,71.6,0.0,64.1,57.2,0.0,77,61,40,30.12,30.02,4,1,7,0.00
2013-6-16,84.9,74.1,64.9,70.8,64.1,56.2,86,72,56,30.06,29.96,5,1,9,0.02
2013-6-17,86.6,72.3,64.4,73.2,66.5,62.2,96,83,58,30.01,29.92,10,1,17,1.40
2013-6-18,72.7,67.9,63.7,70.1,66.1,62.5,97,94,85,29.95,29.82,3,0,6,0.37
2013-6-19,76.9,68.0,61.6,67.3,63.8,60.4,97,87,68,30.16,29.91,5,1,8,0.01
2013-6-20,78.7,70.3,63.4,66.9,62.9,57.7,96,78,59,30.29,30.16,3,1,5,0.00
2013-6-21,81.8,71.6,60.4,65.2,58.2,49.0,82,63,48,30.30,30.24,4,0,7,0.00
2013-6-22,85.5,73.1,61.7,72.3,65.7,58.3,95,79,53,30.27,30.16,3,1,6,0.00
2013-6-23,85.4,75.7,68.3,74.9,69.3,66.2,95,82,59,30.22,30.12,3,1,5,0.00
2013-6-24,88.9,76.2,0.0,76.5,70.4,0.0,96,83,59,30.18,30.08,3,1,6,0.02
2013-6-25,91.0,79.4,70.2,75.0,70.5,65.2,92,76,53,30.09,29.96,3,1,5,0.01
2013-6-26,90.3,78.3,69.5,77.2,71.0,67.7,96,80,58,29.97,29.89,9,1,16,0.00
2013-6-28,89.7,87.8,73.6,74.9,73.1,59.7,62,62,62,29.64,29.52,4,2,8,0.00
2013-7-1,81.6,77.2,72.9,73.0,71.4,70.0,93,83,73,30.00,29.93,3,1,5,0.09
2013-7-2,75.3,72.0,69.3,72.1,70.3,68.4,98,94,87,30.19,29.99,4,1,7,0.21
2013-7-3,83.4,73.5,69.3,76.2,71.6,68.7,98,94,72,30.26,30.17,3,1,6,1.23
2013-7-4,85.7,76.7,70.7,77.4,72.5,0.0,98,88,64,30.29,30.20,5,2,9,0.09
2013-7-5,85.7,76.7,69.5,76.9,72.5,0.0,98,87,68,30.28,30.18,4,1,10,0.11
2013-7-6,87.6,78.1,70.6,76.8,72.2,0.0,97,83,64,30.24,30.13,6,1,12,0.01
2013-7-7,86.8,75.9,0.0,76.3,70.9,0.0,96,85,66,30.17,30.05,7,2,14,0.08
2013-7-8,87.0,73.9,67.5,73.4,69.2,66.0,97,86,57,30.16,30.10,5,0,9,0.82
2013-7-9,86.6,77.2,71.0,76.4,71.0,0.0,93,82,65,30.14,30.06,3,0,5,0.02
2013-7-10,87.6,75.4,70.6,79.5,72.8,69.5,97,92,71,30.08,29.93,6,1,11,0.92
2013-7-11,84.1,74.2,0.0,75.5,70.9,0.0,98,90,69,29.96,29.89,4,1,7,1.20
2013-7-12,68.2,67.5,67.0,67.3,66.2,65.5,97,96,95,30.08,30.02,3,0,4,0.00
2013-7-13,83.4,72.8,0.0,73.9,68.5,0.0,96,86,69,30.27,30.07,4,0,8,0.19
2013-7-14,87.0,77.9,70.8,75.5,71.9,0.0,98,83,62,30.37,30.27,3,0,5,0.19
2013-7-15,91.5,80.5,71.2,76.6,72.4,69.7,97,78,53,30.35,30.25,3,0,5,0.01
2013-7-16,92.1,82.2,74.2,78.5,73.8,0.0,91,77,58,30.29,30.21,4,1,7,0.07
2013-7-17,90.7,80.7,74.7,79.7,75.3,71.0,93,84,60,30.26,30.15,4,0,7,0.33
2013-7-18,92.9,82.7,75.3,80.6,75.4,71.6,93,79,63,30.19,30.07,3,0,6,0.01
2013-7-19,93.0,82.5,75.8,81.5,74.8,0.0,88,78,62,30.09,29.95,5,1,9,0.00
2013-7-20,91.6,78.9,73.2,78.0,72.7,68.2,94,82,58,29.99,29.89,4,1,8,0.00
2013-7-21,90.0,76.6,71.2,77.0,70.8,67.9,95,83,60,30.00,29.94,8,0,16,0.11
2013-7-22,86.7,76.7,70.1,77.5,72.4,69.0,98,87,70,29.99,29.81,4,1,8,0.01
2013-7-23,88.9,78.8,71.3,74.1,70.5,66.7,96,77,56,29.83,29.72,4,1,7,0.00
2013-7-24,85.3,75.3,67.7,72.6,68.3,65.2,96,80,60,29.96,29.73,6,1,9,0.28
2013-7-25,79.0,70.0,62.8,66.5,60.8,55.3,96,73,53,30.09,29.93,4,1,9,0.28
2013-7-26,82.1,71.0,60.4,67.2,62.3,56.7,94,75,52,30.14,30.06,4,1,7,0.00
2013-7-27,77.1,71.2,66.0,71.1,67.3,63.8,94,88,78,30.09,29.97,3,1,9,0.01
2013-7-28,84.4,72.7,67.1,72.9,68.6,64.9,97,88,58,30.03,29.93,3,1,6,0.57
2013-7-29,81.8,71.9,61.9,69.9,60.8,52.3,95,70,42,30.21,30.02,3,0,6,0.01
2013-7-30,84.0,71.9,62.8,66.0,60.6,53.6,86,69,48,30.27,30.18,3,0,8,0.00
2013-7-31,77.9,70.2,64.3,70.4,65.8,61.4,96,86,71,30.19,30.05,2,0,5,0.06
2013-8-1,84.0,71.0,66.7,73.4,68.1,0.0,98,91,64,30.05,29.85,4,0,7,0.68
2013-8-2,85.4,74.2,64.8,71.7,65.5,60.1,97,76,51,30.02,29.90,3,1,6,0.01
2013-8-3,81.7,72.5,67.0,70.1,64.6,59.1,93,77,59,30.01,29.95,3,0,5,0.03
2013-8-4,81.6,71.7,64.4,66.1,60.3,53.9,94,69,46,30.08,29.95,6,1,15,0.03
2013-8-5,80.7,68.9,0.0,63.9,58.1,0.0,83,69,45,30.13,30.03,3,1,6,0.00
2013-8-6,78.7,71.0,65.2,70.1,65.6,61.2,92,83,70,30.07,30.00,3,0,6,0.00
2013-8-7,82.3,73.7,67.8,73.8,69.6,66.4,96,88,73,30.09,30.03,4,1,9,0.00
2013-8-8,80.5,74.1,70.0,75.2,71.4,68.5,96,91,79,30.07,30.01,4,1,7,0.03
2013-8-9,89.7,79.3,71.4,78.3,73.3,70.2,98,83,61,30.01,29.92,6,2,10,0.02
2013-8-10,81.8,75.9,71.2,74.5,71.8,69.4,96,87,76,30.13,30.00,4,0,10,1.50
2013-8-11,82.0,73.0,0.0,74.7,69.7,0.0,97,90,72,30.14,30.04,3,0,5,0.22
2013-8-12,89.3,77.2,69.2,73.6,70.6,68.2,98,82,52,30.06,29.94,3,0,5,0.01
2013-8-13,86.2,74.9,70.9,74.7,70.8,66.8,97,88,61,29.95,29.79,4,1,8,0.33
2013-8-14,75.0,67.2,59.5,68.1,55.4,48.2,90,67,48,30.14,29.85,6,1,11,0.04
2013-8-15,75.3,64.1,55.3,58.2,53.3,0.0,86,69,48,30.21,30.11,5,0,10,0.00
2013-8-16,77.1,65.0,54.7,61.5,56.7,0.0,93,76,49,30.22,30.14,4,0,5,0.00
2013-8-17,73.5,64.7,56.8,62.0,58.7,0.0,95,82,60,30.27,30.20,5,1,8,0.01
2013-8-18,66.2,62.3,59.4,63.8,61.0,58.5,98,95,90,30.26,30.19,4,0,8,1.60
2013-8-19,74.1,66.6,61.3,69.8,64.8,0.0,99,94,84,30.21,30.10,2,0,5,0.03
2013-8-20,84.9,73.4,65.1,73.9,68.9,0.0,98,87,63,30.20,30.11,3,0,7,0.01
2013-8-21,86.2,74.8,67.3,76.0,70.2,66.1,98,86,62,30.23,30.11,4,0,6,0.01
2013-8-22,87.6,75.9,67.5,72.8,68.3,65.0,95,79,53,30.13,29.99,3,0,7,0.00
2013-8-23,73.1,67.5,61.5,69.7,64.9,60.5,97,91,83,30.14,29.97,7,1,13,0.86
2013-8-24,79.8,67.6,57.1,66.3,59.4,55.4,97,78,45,30.34,30.14,5,1,9,0.01
2013-8-25,80.9,68.7,58.6,67.0,60.6,56.0,93,77,50,30.42,30.30,3,0,5,0.00
2013-8-26,85.0,71.7,60.4,69.4,62.6,0.0,91,75,47,30.33,30.06,3,1,6,0.00
2013-8-27,89.5,76.8,67.4,76.1,67.3,60.8,84,73,57,30.07,29.95,3,1,7,0.00
2013-8-28,75.3,73.0,70.8,72.0,69.5,0.0,97,89,76,30.00,29.83,5,1,10,0.77
2013-8-29,81.7,74.4,70.2,72.4,70.1,67.5,98,87,69,30.05,29.84,6,1,10,0.10
2013-8-30,84.3,74.2,67.1,73.8,69.3,0.0,98,86,65,30.07,29.93,3,1,7,0.01
2013-8-31,88.4,73.9,67.8,77.0,69.6,66.3,97,87,64,29.96,29.84,6,1,13,0.80
2013-9-1,87.0,73.3,65.5,74.8,69.6,64.9,99,89,61,29.89,29.80,4,0,5,0.29
2013-9-2,89.1,77.2,69.2,75.2,70.7,67.7,97,82,58,29.87,29.78,2,1,5,0.01
2013-9-3,85.9,76.1,68.8,71.1,67.6,60.2,92,76,56,29.99,29.79,3,1,5,0.00
2013-9-4,80.6,69.8,58.8,65.3,61.0,56.2,93,75,54,30.12,29.98,3,0,6,0.00
2013-9-5,85.4,71.9,59.4,67.5,60.6,53.6,92,69,43,30.15,30.03,4,1,8,0.00
2013-9-6,76.5,65.6,57.4,58.1,54.4,0.0,86,68,45,30.26,30.14,6,1,11,0.00
2013-9-7,80.2,66.9,55.8,67.5,60.0,53.6,93,80,60,30.17,29.96,3,0,5,0.00
2013-9-8,86.9,74.3,62.6,71.3,64.8,55.8,94,73,53,30.05,29.91,4,0,9,0.00
2013-9-9,75.6,69.2,64.3,67.3,62.6,56.3,93,80,63,30.22,30.04,6,1,12,0.00
2013-9-10,89.5,76.4,66.2,77.2,70.2,64.1,97,82,62,30.21,30.13,3,0,7,0.00
2013-9-11,91.2,79.3,71.2,77.3,72.2,68.6,93,80,56,30.18,30.05,3,1,5,0.00
2013-9-12,89.7,77.5,69.6,75.9,70.3,0.0,96,80,58,30.05,29.79,5,1,8,0.00
2013-9-13,77.1,69.5,59.5,64.5,57.3,50.0,87,67,42,29.97,29.76,5,1,10,0.00
2013-9-14,68.2,59.2,51.1,50.2,47.1,43.3,85,65,47,30.17,29.96,5,1,11,0.00
2013-9-15,76.4,62.4,49.5,60.4,53.9,46.7,92,75,51,30.24,30.10,3,1,7,0.00
2013-9-16,67.7,62.9,58.2,63.0,58.1,52.4,92,85,69,30.24,30.08,4,0,7,0.01
2013-9-17,67.3,58.0,50.1,54.8,49.8,42.9,89,75,49,30.41,30.24,8,1,12,0.01
2013-9-18,70.5,56.6,44.9,54.3,48.5,43.1,95,76,47,30.34,30.19,4,0,5,0.00
2013-9-19,77.1,62.9,54.0,63.2,55.5,48.2,90,78,59,30.21,30.09,4,0,6,0.00
2013-9-20,73.9,65.9,57.9,66.1,61.3,0.0,95,86,71,30.11,29.97,2,0,4,0.00
2013-9-21,67.0,64.2,60.8,65.6,63.2,59.9,98,97,91,29.97,29.70,4,1,7,0.44
2013-9-22,73.2,63.1,0.0,59.8,55.9,0.0,97,79,52,29.96,29.75,4,0,8,0.36
2013-9-23,68.8,57.8,48.6,52.8,49.0,45.2,89,74,52,30.11,29.96,4,0,7,0.01
2013-9-24,72.4,59.8,0.0,58.7,52.7,0.0,92,78,57,30.11,29.96,3,0,5,0.00
2013-9-25,71.9,61.1,51.7,59.4,54.4,50.6,98,80,56,29.99,29.90,4,0,8,0.00
2013-9-26,74.8,63.4,56.8,56.0,53.8,51.1,89,73,47,30.09,29.92,4,1,8,0.00
2013-9-27,71.5,61.6,52.6,59.9,55.1,0.0,93,80,60,30.23,30.09,3,0,6,0.00
2013-9-28,65.1,59.9,55.4,57.7,55.4,53.6,95,86,70,30.31,30.22,4,0,7,0.00
2013-9-29,73.6,61.3,52.1,56.6,52.7,0.0,94,76,49,30.22,30.07,3,0,7,0.00
2013-9-30,76.4,62.7,52.4,60.1,55.0,49.8,94,77,53,30.10,30.00,4,0,6,0.00
2013-10-1,83.2,68.7,58.6,63.0,58.7,0.0,88,72,44,30.11,30.02,3,0,5,0.00
2013-10-2,84.0,70.9,60.5,63.3,59.3,55.7,85,69,42,30.13,30.04,3,0,6,0.00
2013-10-3,81.5,70.2,62.3,67.5,62.7,58.4,92,78,54,30.15,30.07,2,0,4,0.00
2013-10-4,86.6,72.9,64.0,68.0,64.1,61.1,94,76,49,30.13,30.06,3,0,5,0.00
2013-10-5,89.1,75.7,66.7,68.7,65.1,62.1,87,71,47,30.13,30.03,3,0,4,0.00
2013-10-6,85.9,73.5,64.4,69.9,65.1,62.4,95,77,51,30.05,29.93,4,1,8,0.00
2013-10-7,69.7,66.1,55.6,68.3,61.7,45.9,97,86,68,30.07,29.80,8,1,14,0.69
2013-10-8,65.4,56.3,48.7,49.5,46.5,0.0,86,71,50,30.28,30.07,7,1,15,0.01
2013-10-9,57.0,53.0,49.7,51.6,48.9,45.9,96,86,79,30.30,30.20,5,1,13,0.22
2013-10-10,56.3,53.5,50.1,55.7,52.7,48.9,98,97,96,30.20,29.99,6,1,15,1.07
2013-10-11,64.6,57.9,54.3,60.3,56.3,0.0,98,94,84,30.00,29.95,3,0,6,0.54
2013-10-12,61.3,59.9,57.9,60.7,59.2,57.1,98,97,95,30.16,29.98,5,1,10,0.29
2013-10-13,59.4,57.8,56.3,58.5,57.1,55.5,98,98,97,30.31,30.15,5,1,13,0.37
2013-10-14,65.7,58.7,55.0,59.3,56.1,54.4,98,91,74,30.33,30.22,4,0,9,0.13
2013-10-15,69.7,58.9,51.1,56.8,53.3,50.3,98,83,54,30.24,30.10,4,0,9,0.01
2013-10-16,72.1,62.5,57.4,62.7,58.0,53.0,94,86,70,30.11,29.94,3,0,9,0.01
2013-10-17,69.8,62.9,57.9,65.6,60.1,0.0,97,91,78,29.94,29.77,6,1,11,0.01
2013-10-18,68.5,57.4,49.2,54.1,45.8,40.9,81,67,41,30.04,29.85,6,1,10,0.01
2013-10-19,60.8,53.5,47.8,54.0,48.9,44.4,94,85,71,30.00,29.81,4,1,9,0.00
2013-10-20,65.1,52.2,41.9,47.5,38.7,34.1,82,62,34,30.11,29.89,5,1,9,0.00
2013-10-21,68.2,53.3,40.9,48.6,42.4,0.0,90,68,42,30.15,29.96,4,1,9,0.00
2013-10-22,70.5,57.2,48.7,51.1,46.8,0.0,91,70,47,29.96,29.80,6,1,13,0.03
2013-10-23,57.2,47.6,41.0,49.0,40.9,32.6,96,79,59,29.93,29.67,6,1,11,0.31
2013-10-24,53.7,43.9,37.6,36.0,31.9,25.9,76,63,47,30.15,29.93,8,2,13,0.01
2013-10-25,56.8,42.3,34.4,31.7,28.1,0.0,76,59,33,30.32,30.13,6,1,9,0.00
2013-10-26,57.3,44.0,0.0,34.6,29.2,0.0,76,57,36,30.31,29.96,5,2,11,0.00
2013-10-27,63.1,50.7,43.1,41.6,37.4,32.8,77,61,41,30.13,29.97,5,1,7,0.00
2013-10-28,63.3,48.3,42.3,53.7,39.3,32.8,82,72,43,30.26,30.12,2,0,4,0.00
2013-10-29,67.5,54.0,0.0,48.8,44.1,0.0,88,70,47,30.37,30.25,3,0,6,0.00
2013-10-30,70.9,58.0,50.1,58.9,51.8,44.4,93,80,63,30.33,30.14,3,0,5,0.02
2013-10-31,67.0,60.2,53.7,59.9,56.5,0.0,97,88,76,30.18,29.80,4,1,9,0.01
2013-11-1,77.2,66.1,59.7,62.1,58.9,0.0,94,79,44,29.80,29.63,9,3,13,0.06
2013-11-2,68.8,58.3,0.0,57.8,43.4,0.0,96,60,34,29.91,29.67,6,1,10,0.01
2013-11-3,58.2,48.3,40.3,38.5,31.5,24.8,70,54,30,30.40,29.91,6,1,13,0.00
2013-11-4,47.0,37.9,31.5,27.0,24.8,22.2,72,60,43,30.59,30.39,6,2,14,0.00
2013-11-5,51.8,42.9,34.0,43.7,33.4,24.7,91,69,50,30.59,30.44,3,0,5,0.00
2013-11-6,67.9,54.3,46.1,51.7,48.3,43.6,93,81,55,30.45,30.06,5,1,8,0.00
2013-11-7,62.7,52.7,40.9,56.5,43.9,24.2,92,73,47,30.11,29.90,8,2,14,0.01
2013-11-8,53.3,42.4,36.8,29.4,24.6,22.6,65,50,32,30.31,30.09,7,1,11,0.01
2013-11-9,56.7,43.3,32.8,30.2,27.3,23.8,74,54,35,30.33,30.04,6,2,9,0.00
2013-11-10,67.4,47.9,39.6,36.4,28.7,23.3,66,50,20,30.25,29.96,9,3,16,0.00
2013-11-11,61.2,46.3,37.9,30.6,27.5,25.5,63,49,27,30.30,29.99,6,2,13,0.00
2013-11-12,54.9,39.2,28.4,33.8,22.4,13.6,62,51,37,30.40,29.94,12,4,20,0.00
2013-11-13,43.0,33.6,27.8,19.3,15.3,10.2,62,48,33,30.48,30.36,7,2,10,0.00
2013-11-14,63.0,44.3,30.9,21.9,15.4,5.6,42,32,19,30.36,30.20,5,2,7,0.00
2013-11-15,61.3,47.9,36.9,46.4,28.9,18.5,94,51,27,30.26,30.16,5,2,7,0.24
2013-11-16,53.5,48.5,43.9,49.8,47.0,42.8,97,95,86,30.30,30.20,2,0,4,0.41
2013-11-17,58.3,54.0,49.9,57.7,53.4,49.1,98,98,97,30.22,29.74,9,2,15,0.07
2013-11-18,66.8,56.8,45.5,59.2,37.8,0.0,98,53,27,29.97,29.73,9,4,16,0.09
2013-11-19,49.4,41.9,33.9,28.3,26.0,24.5,69,54,41,30.36,29.96,9,3,13,0.00
2013-11-20,45.8,36.5,0.0,27.2,24.7,0.0,75,63,44,30.51,30.35,6,2,11,0.00
2013-11-21,47.0,40.9,33.8,39.1,34.3,26.5,82,77,70,30.53,30.35,3,1,5,0.00
2013-11-22,66.7,54.5,44.6,55.6,47.7,0.0,85,78,63,30.36,30.02,6,3,9,0.00
2013-11-23,58.6,46.3,29.2,48.8,29.2,13.6,79,54,24,30.20,30.01,10,4,16,0.00
2013-11-24,29.7,25.3,19.7,15.2,6.2,2.1,59,44,31,30.49,30.21,11,4,19,0.00
2013-11-25,36.6,26.3,18.8,14.5,9.6,0.0,64,49,32,30.52,30.29,6,2,9,0.00
2013-11-26,40.2,33.7,31.2,39.4,27.3,13.6,97,80,45,30.30,29.55,7,2,11,2.26
2013-11-27,41.3,35.5,25.1,40.5,29.6,12.0,97,80,55,30.10,29.48,13,4,20,1.43
2013-11-28,40.3,29.6,23.2,20.0,16.4,12.0,67,58,40,30.42,30.10,7,2,11,0.01
2013-11-29,42.9,32.3,26.0,24.1,20.2,17.1,73,61,43,30.67,30.40,6,1,8,0.00
2013-11-30,39.3,30.4,23.9,25.1,21.0,17.8,77,68,50,30.67,30.31,4,1,7,0.00
2013-12-1,53.3,38.8,25.4,31.7,26.0,20.5,82,62,41,30.30,29.97,4,1,6,0.00
2013-12-2,47.0,43.5,41.3,35.3,31.9,28.3,74,64,53,29.98,29.85,3,0,4,0.00
2013-12-3,56.7,45.6,38.4,41.2,36.9,0.0,82,72,53,29.99,29.86,4,0,6,0.00
2013-12-4,60.3,51.0,43.1,51.6,45.8,38.0,94,83,67,30.06,29.97,4,1,7,0.00
2013-12-5,63.0,57.9,53.3,61.0,56.2,51.6,98,94,89,30.07,29.93,7,3,10,0.00
2013-12-6,64.1,52.7,39.6,63.2,51.7,0.0,98,96,91,30.12,29.90,11,4,18,1.05
2013-12-7,42.4,36.7,29.7,38.8,32.4,24.4,97,85,70,30.50,30.10,8,3,11,0.58
2013-12-8,31.3,28.3,26.1,30.3,24.8,0.0,96,87,75,30.51,30.19,6,2,12,0.00
2013-12-9,36.2,32.9,31.0,35.6,32.2,0.0,98,97,96,30.22,29.99,6,0,9,0.40
2013-12-10,37.7,32.5,29.4,37.2,28.6,17.3,98,87,59,30.21,29.96,12,1,23,0.44
2013-12-11,43.9,34.2,27.0,24.4,19.4,14.4,66,55,39,30.37,30.21,6,2,8,0.06
2013-12-12,37.9,31.3,26.7,21.5,11.8,2.9,60,45,29,30.38,30.22,7,3,11,0.01
2013-12-13,47.7,35.6,26.9,20.9,14.4,9.9,52,42,28,30.28,30.19,8,3,13,0.00
2013-12-14,38.1,33.7,29.7,34.5,28.0,0.0,97,82,45,30.27,29.67,6,1,9,0.41
2013-12-15,48.6,37.9,31.8,39.5,30.5,23.8,98,76,49,29.95,29.62,11,4,16,0.05
2013-12-16,42.1,35.1,29.7,30.0,27.0,25.0,83,73,57,30.13,29.95,8,2,9,0.01
2013-12-17,51.6,36.3,27.2,38.2,30.4,24.2,90,80,56,30.10,29.88,9,2,15,0.01
2013-12-18,43.0,35.6,30.5,31.5,21.4,17.6,86,57,39,30.20,29.97,7,2,11,0.01
2013-12-19,61.4,44.8,30.7,32.0,25.7,17.7,65,48,31,30.17,30.09,8,4,12,0.00
2013-12-20,59.7,49.7,40.1,40.6,33.7,27.6,66,54,41,30.12,30.02,8,4,12,0.00
2013-12-21,68.5,57.8,48.9,59.4,50.3,39.9,89,76,62,30.05,29.92,10,4,19,0.00
2013-12-22,68.2,63.0,58.2,63.6,59.1,55.8,96,88,65,30.02,29.87,10,4,17,0.13
2013-12-23,61.0,53.0,35.6,60.4,48.4,26.0,98,85,62,30.20,29.93,9,4,13,0.08
2013-12-24,42.3,31.5,21.9,26.9,19.0,6.0,77,60,44,30.44,30.17,10,3,15,0.15
2013-12-25,33.2,24.0,16.7,14.1,11.2,7.3,78,58,43,30.52,30.30,6,2,8,0.07
2013-12-26,48.5,32.7,22.3,26.6,17.5,12.8,74,55,35,30.35,30.18,9,3,13,0.19
2013-12-27,51.7,39.6,31.8,23.1,19.2,15.6,56,44,29,30.41,30.30,5,2,8,0.03
2013-12-28,57.9,45.0,36.9,32.1,23.9,19.8,61,44,31,30.31,30.10,5,2,9,0.01
2013-12-29,51.6,43.8,0.0,47.6,39.1,0.0,97,84,64,30.10,29.59,12,3,17,1.72
2013-12-30,46.8,41.3,32.2,38.6,32.8,26.4,82,72,56,30.14,29.82,6,2,9,0.01
2013-12-31,45.7,35.0,27.8,31.4,22.6,15.4,90,63,39,30.30,30.11,13,2,19,0.00
2014-1-1,49.2,35.5,0.0,27.4,21.1,0.0,70,56,41,30.36,30.04,6,1,9,0.00
2014-1-2,36.6,32.2,29.0,31.1,26.9,23.1,96,81,65,30.08,29.59,5,1,8,0.08